Notices

What's New in latest Release from April 7th, 2021:

- Updated Glossary, including Speed of Maximum Gust, and Total Hourly Precipitation

- Updated national and regional climate services offices contacts and prices information

- Addition of station inventory lists for 1981-2010, 1971-2000, and 1961-1990 Normals.

If you haven't already, please take our survey and provide feedback about our website: https://eccc.sondage-survey.ca/f/LanguageSelection.aspx?s=442ca660-fcf1-47c0-95a9-59707d6fd709

Hourly Data Report for September 08, 2015

IQALUIT CLIMATE
NUNAVUT

63°44'50.000" N
68°32'40.000" W
33.50 m
2402592
71321
XFB

Download Data

Hourly Data (September 2015)
Hourly Data Report for September 8, 2015
TIME
LST
Temp Definition
°C
Dew Point Definition
°C
Rel Hum Definition
%
Precip. Amount Definition
mm

Wind Dir Definition
10's deg

Wind Spd Definition
km/h
Visibility Definition
km
Stn Press Definition
kPa
Hmdx Definition


Wind Chill Definition


Weather Definition


00:00 3.5 1.7 88 0.0 31 17   100.84     LegendNANA
01:00 3.7 1.2 84 0.0 30 18   100.87     LegendNANA
02:00 3.4 1.0 85 0.0 32 21   100.88     LegendNANA
03:00 2.8 0.7 86 0.0 31 22   100.90     LegendNANA
04:00 2.9 0.7 86 0.0 33 23   100.93     LegendNANA
05:00 3.0 0.6 84 0.0 32 17   100.99     LegendNANA
06:00 3.1 0.1 81 0.0 34 27   100.98     LegendNANA
07:00 3.5 0.4 80 0.0 34 21   101.04     LegendNANA
08:00 3.1 0.6 84 0.0 32 26   101.08     LegendNANA
09:00 3.9 0.9 81 0.0 33 24   101.07     LegendNANA
10:00 5.4 1.2 74 0.0 33 24   101.04     LegendNANA
11:00 6.1 1.4 72 0.0 33 24   101.02     LegendNANA
12:00 6.6 1.5 70 0.0 34 26   101.03     LegendNANA
13:00 5.8 0.9 71 0.0 33 26   101.03     LegendNANA
14:00 5.7 1.0 72 0.0 33 23   101.06     LegendNANA
15:00 5.5 0.4 70 0.0 33 27   101.05     LegendNANA
16:00 5.8 0.1 67 0.0 32 21   101.07     LegendNANA
17:00 6.0 0.4 67 0.0 32 20   101.03     LegendNANA
18:00 5.3 0.5 71 0.0 32 14   101.04     LegendNANA
19:00 3.6 0.4 80 0.0 32 12   101.06     LegendNANA
20:00 3.3 0.9 84 0.0 32 14   101.06     LegendNANA
21:00 1.5 -0.2 88 0.0 33 14   101.06     LegendNANA
22:00 2.2 0.5 89 0.0 30 8   101.04     LegendNANA
23:00 0.8 -0.4 92 0.0 7 3   101.03     LegendNANA

Notes on Data Quality.

Legend

  • E = Estimated
  • M = Missing
  • NA = Not Available*
  • [empty] = Indicates an unobserved value
Date modified: